Location: Kopernik Observatory
(42.0014°N, 76.0372°W)
Time: 20:49:28
(UTC-04:00)

Daily predictions for brighter satellites

Satellite Brightness Start Highest point End
(mag) Time Altitude Azimuth Time Altitude Azimuth Time Altitude Azimuth
APEX 3.5 18:32:44 10° S 18:35:29 28° ESE 18:38:00 10° NE
ERS-2 2.1 18:34:25 10° SSE 18:38:04 65° ENE 18:41:45 10° N
SL-24 R/B - RUBIN 2 3.9 18:34:28 10° NW 18:39:20 78° WSW 18:43:44 10° SSE
YAOGAN 1 2.6 18:36:04 10° SSE 18:40:18 56° ENE 18:44:33 10° N
EO 1 Delta rocket 4.5 18:34:17 10° SSE 18:41:04 80° E 18:46:25 10° N
Cosmos 1420 Rocket 4.1 18:36:01 10° NNW 18:41:16 57° ENE 18:46:27 10° SE
Cosmos 1726 3.5 18:42:16 10° SE 18:44:57 19° E 18:47:39 10° NE
Cosmos 2322 3.7 18:39:13 10° NNW 18:44:59 83° ENE 18:50:41 10° SSE
DELTA 2 R/B (1) 4.4 18:39:41 10° W 18:45:03 49° SSW 18:50:26 10° SE
CZ-4 R/B 1.5 18:41:04 10° SSE 18:45:17 88° W 18:49:26 10° NNW
EO 1 Del DPAF 3.5 18:44:13 10° NNE 18:47:58 49° E 18:51:41 10° S
CZ-2C R/B 3.7 18:44:25 10° NNE 18:48:56 90° WSW 18:53:22 10° SSW
IRS-1A Rocket 4.4 18:43:37 10° SSE 18:49:29 88° ENE 18:55:27 10° NNW
GRACE-1 4.2 18:48:19 10° SSE 18:50:43 37° E 18:53:09 10° NNE
Cosmos 2219 Rocket 2.8 18:46:17 10° N 18:51:22 34° ENE 18:56:25 10° ESE
Landsat 4 3.8 18:48:06 10° N 18:51:49 79° WNW 18:55:32 10° SSW
Cosmos 1821 Rocket 4.5 18:47:10 10° SSE 18:52:43 37° E 18:58:23 10° NNE
METEOR-M 4.1 18:51:26 10° SSE 18:56:42 63° ENE 19:01:59 10° N
CZ-4 R/B 4.4 18:52:41 10° SSE 18:56:49 78° ENE 19:00:59 10° N
BREEZE-M DEB (TANK) 2.2 18:54:51 10° WSW 18:57:13 48° NNW 18:58:56 12° NE
Cosmos 2221 2.6 18:56:54 10° S 19:01:08 56° E 19:05:24 10° NNE
Cosmos 2084 4.2 18:58:20 10° NNW 19:01:39 27° NE 19:04:15 14° E
Meteor 2-1 Rocket 4.4 18:56:05 10° S 19:01:54 87° W 19:07:52 10° N
Meteor 1-28 Rocket 3.6 18:58:10 10° N 19:01:56 66° WNW 19:05:39 10° SSW
ALOS 2.7 18:58:05 10° SE 19:02:26 40° ENE 19:06:49 10° N
Thor Agena Rocket 4.5 18:58:43 10° NE 19:02:53 25° E 19:06:59 10° SSE
Cosmos 1315 Rocket 2.9 19:00:28 10° N 19:04:34 90° W 19:08:41 10° S
Cosmos 921 Rocket 3.3 19:01:06 10° NNW 19:05:32 72° WSW 19:09:52 10° S
SKYMED 2 3.5 19:02:29 10° NNE 19:06:50 69° ESE 19:11:09 10° S
Cosmos 1727 Rocket 4.4 19:01:22 10° NNW 19:07:42 71° W 19:13:57 10° S
GP-B 3.7 19:05:39 10° N 19:10:02 62° W 19:14:25 10° SSW
Cosmos 2333 4.2 19:15:11 10° NNW 19:20:57 86° ENE 19:26:43 10° SSE
BREEZE-M R/B 3.4 19:20:39 10° S 19:22:52 24° SE 19:23:15 24° ESE
Cosmos 2123 Rocket 4.3 19:17:04 10° N 19:22:59 43° ENE 19:28:54 10° SSE
Cosmos 1908 3.9 19:20:28 10° SSW 19:24:19 58° W 19:28:10 10° N
SJ-6B 3.9 19:25:54 23° ENE 19:25:54 23° ENE 19:28:36 10° NNE
Lacrosse 5 rocket 3.9 19:25:50 10° NNW 19:26:49 11° N 19:27:48 10° NNE
Cosmos 1605 Rocket 4.4 19:21:50 10° SSE 19:27:14 34° E 19:32:39 10° NNE
Cosmos 2237 Rocket 2.8 19:23:23 10° N 19:28:39 37° ENE 19:31:45 21° ESE
Cosmos 1269 Rocket 4.0 19:25:09 10° SSW 19:30:25 89° WNW 19:35:45 10° NNE
Cosmos 44 3.6 19:26:17 10° SW 19:30:35 57° NW 19:34:52 10° NNE
DMSP B5D1-3 4.4 19:25:39 10° NNE 19:30:48 73° ESE 19:35:56 10° S
H-2A R/B 3.2 19:32:06 22° SE 19:34:04 39° ENE 19:37:45 10° N
Aureole 2 Rocket 2.7 19:30:36 10° NNW 19:34:34 83° ENE 19:38:39 10° SSE
Cosmos 2227 Rocket 2.7 19:31:07 10° SSE 19:36:11 35° ESE 19:39:16 20° NE
NOSS 0 Rocket 3.9 19:33:20 10° NNW 19:39:27 62° ENE 19:44:52 13° SE
SL-16 R/B 3.5 19:36:51 10° N 19:41:09 21° NE 19:41:21 21° NE
Atlas Centaur 2 4.3 19:40:57 10° SSW 19:41:40 10° SSW 19:42:24 10° S
SPOT 3 Rocket 4.1 19:37:23 10° S 19:42:30 60° WSW 19:47:40 10° NNW
Gbstr 26 Del rocket 3.7 19:37:39 10° WNW 19:42:40 77° SW 19:47:06 20° SE
Iridium 4 Rocket 3.9 19:37:08 10° S 19:42:47 79° W 19:48:43 10° N
Abrixas rocket 3.3 19:40:17 10° NW 19:43:17 31° NNE 19:43:32 31° NNE
Cosmos 1300 2.5 19:44:33 10° S 19:48:22 80° E 19:52:12 10° N
Cosmos 494 Rocket 4.0 19:43:58 10° S 19:48:56 54° ESE 19:52:56 16° NNE
Sich 1 2.9 19:45:55 10° N 19:50:20 83° E 19:54:45 10° S
Cosmos 1980 3.7 19:47:37 10° NNW 19:53:13 60° ENE 19:55:59 30° SE
COSMO-SKYMED 1 4.2 19:50:48 10° N 19:54:47 35° WNW 19:58:44 10° SW
Resurs 01 Rocket 3.4 19:57:31 18° NNE 19:57:31 18° NNE 19:58:58 10° N
CZ-4C R/B 2.7 19:51:53 10° SW 19:57:02 59° NW 20:02:54 10° NNE
Cosmos 1110 Rocket 3.9 19:52:10 10° NNW 19:57:31 79° ENE 20:01:18 19° SSE
Cosmos 2098 Rocket 4.2 19:53:36 10° SSW 19:58:16 58° WNW 20:04:16 10° N
FREGAT/IRIS 4.0 20:00:58 32° NNW 20:00:58 32° NNW 20:02:43 10° NNW
Meteor 2-3 Rocket 4.1 19:54:45 10° N 20:00:11 41° ENE 20:00:30 41° E
FENGYUN 3A 4.2 19:55:49 10° S 20:01:08 60° W 20:06:30 10° NNW
COSMOS 2428 4.0 19:57:33 10° NW 20:02:51 41° WSW 20:08:08 10° S
USA 32 4.1 19:59:07 10° N 20:04:14 51° E 20:04:45 49° ESE
Cosmos 2333 Rocket 2.3 20:00:09 10° NNW 20:05:54 77° WSW 20:11:07 13° SSE
Cosmos 2219 4.1 20:01:29 10° SW 20:07:02 49° WNW 20:12:37 10° NNE
Meteor 2-10 4.2 20:05:23 10° SSW 20:10:23 71° WNW 20:15:33 10° N
Hubble Space Telescope 3.3 20:09:33 10° S 20:10:06 11° S 20:10:06 11° S
Cosmos 2297 Rocket 2.1 20:07:45 10° S 20:13:17 59° ESE 20:14:04 54° ENE
Cosmos 1666 Rocket 4.3 20:11:35 10° NNW 20:15:49 52° W 20:20:00 10° S
Cosmos 1726 4.4 20:17:01 10° SW 20:20:05 24° WNW 20:23:10 10° NNW
Cosmos 1328 Rocket 3.5 20:15:42 10° S 20:25:10 - N 20:19:44 74° SSW
Cosmos 1633 Rocket 3.6 20:16:09 10° NNW 20:20:30 57° W 20:24:47 10° S
Envisat 4.0 20:24:49 33° NNE 20:24:49 33° NNE 20:27:47 10° N
Cosmos 2082 3.6 20:18:02 10° SSW 20:23:44 71° ESE 20:24:19 65° ENE
Cosmos 2251 Rocket 3.4 20:19:12 10° SSW 20:24:29 82° ESE 20:25:26 61° NNE
Cosmos 2219 Rocket 3.6 20:30:14 10° NW 20:35:17 36° WSW 20:40:20 10° S
USA 267 3.7 20:48:33 45° S 20:48:33 45° S 20:53:20 10° SSW
BREEZE-M DEB (TANK) 3.7 20:53:18 10° WNW 21:04:20 62° WSW 21:04:20 62° WSW
Cosmos 2237 Rocket 3.6 21:07:34 10° NW 21:12:38 34° WSW 21:13:39 31° SW
Cosmos 2227 Rocket 3.6 21:15:03 10° WSW 21:20:11 35° WNW 21:21:12 33° NW
USA 234 4.3 21:23:45 36° N 21:23:45 36° N 21:28:16 10° NW
SL-16 R/B 3.6 21:20:07 10° NNW 21:23:15 33° NW 21:23:15 33° NW
Cosmos 2297 Rocket 4.5 21:53:21 10° WSW 21:56:00 20° WNW 21:56:00 20° WNW
